Farmington, NM

3:51 PM MDT on September 19, 2019 (GMT -0600)
Four Corners Regional

Weather History for KFMN - August, 2019

Change the Weather History Date:

Saturday, August 24, 2019

  Actual Average Record
Temperature  
Mean Temperature 74 °F -  
Max Temperature 95 °F 86 °F 99 °F (2011)
Min Temperature 55 °F 57 °F 46 °F (2002)
Cooling Degree Days 9    
Growing Degree Days 24 (Base 50)    
Moisture  
Dew Point 28 °F    
Average Humidity 20    
Maximum Humidity 45    
Minimum Humidity 9    
Precipitation  
Precipitation 0.00 in - - ()
Sea Level Pressure  
Sea Level Pressure 29.91 in    
Wind  
Wind Speed 6 mph ()    
Max Wind Speed 16 mph    
Max Gust Speed 28 mph    
Visibility 10.0 miles    
Events      
Averages and records for this station are not official NWS values.
T = Trace of Precipitation, MM = Missing Value Source: Averaged Metar Reports

Daily Weather History Graph

Daily Weather History Graph

Search for Another Location

Airport or City:

Astronomy

Aug. 24, 2019 Rise Set
Actual Time 6:37 AM MDT 7:52 PM MDT
Civil Twilight 6:10 AM MDT 8:19 PM MDT
Nautical Twilight 5:38 AM MDT 8:51 PM MDT
Astronomical Twilight 5:04 AM MDT 9:24 PM MDT
Moon 12:35 AM MDT (8/24) 3:07 PM MDT (8/24)
Length of Visible Light 14h 08m
Length of Day
13h 15m
Last Quarter, 38% of the Moon is Illuminated
Aug 24
Last Quarter
Aug 30
New
Sep 5
First Quarter
Sep 13
Full
Sep 21
Last Quarter

Hourly Weather History & Observations

Time (MDT) Temp. Dew Point Humidity Pressure Visibility Wind Dir Wind Speed Gust Speed Precip Events Conditions
12:53 AM 64.9 °F 28.0 °F 25% 29.88 in 10.0 mi NNE 5.8 mph - N/A   Clear
1:53 AM 61.0 °F 27.0 °F 27% 29.89 in 10.0 mi NE 5.8 mph - N/A   Clear
2:53 AM 59.0 °F 26.1 °F 28% 29.89 in 10.0 mi NNE 4.6 mph - N/A   Clear
3:53 AM 55.9 °F 27.0 °F 33% 29.91 in 10.0 mi NE 6.9 mph - N/A   Clear
4:53 AM 57.9 °F 27.0 °F 31% 29.91 in 10.0 mi Calm Calm - N/A   Clear
5:53 AM 57.0 °F 30.0 °F 36% 29.92 in 10.0 mi East 5.8 mph - N/A   Clear
6:53 AM 55.0 °F 34.0 °F 45% 29.95 in 10.0 mi East 8.1 mph - N/A   Clear
7:53 AM 61.0 °F 34.0 °F 36% 29.96 in 10.0 mi ENE 4.6 mph - N/A   Clear
8:53 AM 66.0 °F 33.1 °F 29% 29.98 in 10.0 mi ESE 9.2 mph - N/A   Clear
9:53 AM 71.1 °F 35.1 °F 27% 29.97 in 10.0 mi ESE 6.9 mph - N/A   Clear
10:53 AM 80.1 °F 28.9 °F 15% 29.97 in 10.0 mi North - - N/A   Clear
11:53 AM 84.9 °F 30.9 °F 14% 29.95 in 10.0 mi WNW 4.6 mph - N/A   Clear
12:53 PM 88.0 °F 28.9 °F 12% 29.92 in 10.0 mi WNW 16.1 mph 23.0 mph N/A   Clear
1:53 PM 91.9 °F 28.9 °F 11% 29.90 in 10.0 mi WNW 15.0 mph 25.3 mph N/A   Clear
2:53 PM 93.0 °F 27.0 °F 9% 29.89 in 10.0 mi WNW 11.5 mph 27.6 mph N/A   Clear
3:53 PM 93.0 °F 26.1 °F 9% 29.88 in 10.0 mi WNW 10.4 mph - N/A   Clear
4:53 PM 93.0 °F 27.0 °F 9% 29.86 in 10.0 mi West 15.0 mph - N/A   Clear
5:53 PM 93.9 °F 27.0 °F 9% 29.86 in 10.0 mi WNW 15.0 mph 19.6 mph N/A   Clear
6:53 PM 89.1 °F 26.1 °F 10% 29.89 in 10.0 mi WNW 10.4 mph - N/A   Clear
7:53 PM 86.0 °F 26.1 °F 11% 29.89 in 10.0 mi NW 8.1 mph - N/A   Clear
8:53 PM 82.0 °F 26.1 °F 13% 29.89 in 10.0 mi NNW 3.5 mph - N/A   Clear
9:53 PM 79.0 °F 27.0 °F 15% 29.90 in 10.0 mi Calm Calm - N/A   Clear
10:53 PM 70.0 °F 25.0 °F 18% 29.91 in 10.0 mi Calm Calm - N/A   Clear
11:53 PM 70.0 °F 26.1 °F 19% 29.89 in 10.0 mi North 8.1 mph - N/A   Clear